Weather History for Eau Claire, WI

Change the Weather History Date:

Thursday, February 6, 2014

  Actual Average Record
Temperature  
Mean Temperature -6 °F 17 °F  
Max Temperature 1 °F 26 °F 48 °F (1925)
Min Temperature -14 °F 7 °F -29 °F (1899)
Degree Days  
Heating Degree Days 71 48  
Month to date heating degree days 396 294  
Since 1 July heating degree days 5637 5038  
Cooling Degree Days 0 0  
Month to date cooling degree days 0 0  
Year to date cooling degree days 0 0  
Moisture  
Dew Point -12 °F    
Average Humidity 70    
Maximum Humidity 83    
Minimum Humidity 57    
Precipitation  
Precipitation 0.00 in 0.02 in 0.40 in (1938)
Month to date precipitation T 0.16  
Year to date precipitation 1.58 1.05  
Snow  
Snow 0.00 in 0.30 in 4.30 in (2004)
Month to date snowfall 0.1 1.9  
Since 1 July snowfall 46.1 30.9  
Snow Depth 16.00 in    
Sea Level Pressure  
Sea Level Pressure 30.37 in    
Wind  
Wind Speed 9 mph (WSW)    
Max Wind Speed 18 mph    
Max Gust Speed 22 mph    
Visibility 9 miles    
Events      
T = Trace of Precipitation, MM = Missing Value Source: NWS Daily Summary

Daily Weather History Graph

Daily Weather History Graph

Search for Another Location

Airport:

Trip Planner

Search our weather history database for the weather conditions in past years. The results will help you decide how hot, cold, wet, or windy it might be!

Date:

Astronomy

Feb. 06, 2014 Rise Set
Actual Time 7:19 AM CST 5:21 PM CST
Civil Twilight 6:48 AM CST 5:52 PM CST
Nautical Twilight 6:13 AM CST 6:27 PM CST
Astronomical Twilight 5:39 AM CST 7:01 PM CST
Moon 10:52 AM CST (2/6) 12:35 AM CST (2/6)
Length of Visible Light 11h 03m
Length of Day
10h 02m
Waxing Crescent, 49% of the Moon is Illuminated
Feb 6
Waxing Crescent
Feb 6
First Quarter
Feb 14
Full
Feb 22
Last Quarter
Mar 1
New

Hourly Weather History & Observations

Time (CST) Temp. Windchill Dew Point Humidity Pressure Visibility Wind Dir Wind Speed Gust Speed Precip Events Conditions
12:56 AM -7.1 °F -15.9 °F -11.9 °F 79% 30.48 in 10.0 mi SW 3.5 mph - N/A   Clear
1:56 AM -8.0 °F -21.0 °F -11.9 °F 83% 30.47 in 10.0 mi West 5.8 mph - N/A   Clear
2:56 AM -9.0 °F -23.8 °F -13.0 °F 83% 30.47 in 10.0 mi WSW 6.9 mph - N/A   Clear
3:56 AM -9.0 °F -22.3 °F -14.1 °F 79% 30.46 in 10.0 mi West 5.8 mph - N/A   Clear
4:56 AM -9.9 °F -23.4 °F -15.0 °F 78% 30.46 in 10.0 mi WSW 5.8 mph - N/A   Mostly Cloudy
5:07 AM -11.0 °F -26.2 °F -16.1 °F 78% 30.37 in 10.0 mi West 6.9 mph - N/A   Scattered Clouds
5:56 AM -11.9 °F -27.3 °F -17.0 °F 78% 30.46 in 10.0 mi WSW 6.9 mph - N/A   Clear
6:56 AM -13.0 °F -27.0 °F -18.0 °F 78% 30.46 in 10.0 mi WSW 5.8 mph - N/A   Partly Cloudy
7:28 AM -13.0 °F -25.1 °F -20.0 °F 71% 30.37 in 3.0 mi WSW 4.6 mph - N/A   Haze
7:35 AM -13.0 °F -25.1 °F -18.0 °F 78% 30.36 in 2.5 mi WSW 4.6 mph - N/A   Haze
7:56 AM -13.0 °F -22.7 °F -18.0 °F 78% 30.45 in 2.0 mi WSW 3.5 mph - N/A   Haze
8:22 AM -11.9 °F -25.7 °F -17.0 °F 78% 30.36 in 5.0 mi WSW 5.8 mph - N/A   Haze
8:56 AM -9.9 °F -26.3 °F -15.0 °F 78% 30.45 in 10.0 mi WSW 8.1 mph - N/A   Clear
9:56 AM -8.0 °F -25.0 °F -13.0 °F 79% 30.45 in 10.0 mi West 9.2 mph - N/A   Clear
10:56 AM -6.0 °F -24.6 °F -11.9 °F 75% 30.45 in 10.0 mi WSW 11.5 mph - N/A   Clear
11:56 AM -2.9 °F -21.6 °F -11.0 °F 68% 30.43 in 10.0 mi WSW 12.7 mph - N/A   Partly Cloudy
12:48 PM -0.9 °F -19.1 °F -9.9 °F 66% 30.31 in 7.0 mi WSW 12.7 mph - N/A   Mostly Cloudy
12:56 PM -0.9 °F -17.4 °F -9.9 °F 66% 30.40 in 8.0 mi WSW 10.4 mph - N/A   Mostly Cloudy
1:16 PM -0.0 °F -18.7 °F -9.9 °F 63% 30.30 in 10.0 mi WSW 13.8 mph - N/A   Scattered Clouds
1:46 PM -0.0 °F -19.4 °F -9.9 °F 63% 30.29 in 10.0 mi SW 15.0 mph - N/A   Mostly Cloudy
1:56 PM -0.0 °F -18.7 °F -9.9 °F 63% 30.38 in 10.0 mi WSW 13.8 mph - N/A   Overcast
2:36 PM 1.0 °F -16.6 °F -9.9 °F 60% 30.28 in 10.0 mi WSW 12.7 mph 21.9 mph N/A   Scattered Clouds
2:56 PM 1.0 °F -16.6 °F -9.9 °F 60% 30.36 in 10.0 mi WSW 12.7 mph 21.9 mph N/A   Clear
3:56 PM 1.0 °F -18.7 °F -11.0 °F 57% 30.35 in 10.0 mi WSW 16.1 mph 21.9 mph N/A   Clear
4:56 PM -0.0 °F -18.0 °F -11.0 °F 60% 30.34 in 10.0 mi SW 12.7 mph - N/A   Clear
5:56 PM -0.9 °F -17.4 °F -11.0 °F 62% 30.33 in 10.0 mi WSW 10.4 mph - N/A   Clear
6:56 PM -2.0 °F -16.6 °F -11.0 °F 66% 30.33 in 10.0 mi SW 8.1 mph - N/A   Clear
7:56 PM -2.0 °F -16.6 °F -11.0 °F 66% 30.32 in 10.0 mi SW 8.1 mph - N/A   Clear
8:56 PM -2.9 °F -17.7 °F -9.9 °F 72% 30.32 in 10.0 mi SW 8.1 mph - N/A   Clear
9:39 PM -2.9 °F -17.7 °F -9.0 °F 75% 30.22 in 10.0 mi SW 8.1 mph - N/A   Mostly Cloudy
9:56 PM -2.9 °F -17.7 °F -9.0 °F 75% 30.31 in 10.0 mi SW 8.1 mph - N/A   Overcast
10:56 PM -2.9 °F -18.8 °F -9.0 °F 75% 30.30 in 10.0 mi SW 9.2 mph - N/A   Overcast
11:10 PM -2.9 °F -19.8 °F -9.0 °F 75% 30.21 in 10.0 mi SW 10.4 mph - N/A   Mostly Cloudy
11:56 PM -4.0 °F -20.2 °F -9.0 °F 79% 30.28 in 10.0 mi SW 9.2 mph - N/A   Overcast